STARLINK-11231 [DTC]

Last updated on Mon Oct 14 2024 00:02:03 GMT+0000 (Coordinated Universal Time)

1 61057U 24164H 24287.40378352 .00007924 00000+0 70198-4 0 9991 2 61057 53.1567 317.0234 0000424 76.6710 283.4355 15.69708450 5881
UTC large
Height (km)
Speed (km/s)
/
Latitude / Longitude
Inclination (degrees)
Orbital Period (minutes)
Azimuth
Elevation
Range (km)
Doppler Factor

Next 0 passes for location: London (51.5072 / 0.1276)

Sorry there are no passes over London.